Location: Bouillancourt
(49.6948°N, 2.5320°E)
Time: 01:58:41
(UTC+00:00)

Daily predictions for brighter satellites

Satellite Brightness Start Highest point End
(mag) Time Altitude Azimuth Time Altitude Azimuth Time Altitude Azimuth
Cosmos 1441 Rocket 3.5 00:01:03 10° N 00:04:36 52° ENE 00:05:10 46° ESE
Cosmos 1766 4.4 00:01:56 10° NNW 00:05:12 29° W 00:05:28 28° W
Cosmos 1933 Rocket 3.6 00:01:54 10° NNW 00:06:12 62° W 00:07:06 49° SSW
Meteor 1-15 Rocket 4.4 00:02:23 10° N 00:08:05 69° ENE 00:10:46 32° SSE
Cosmos 1707 2.4 00:08:39 70° SW 00:09:00 81° W 00:12:42 10° N
Cosmos 1470 2.8 00:05:41 10° NNW 00:09:19 54° W 00:09:34 52° WSW
USA 59 Rocket 1.2 00:06:00 10° WNW 00:09:32 30° WSW 00:09:32 30° WSW
Cosmos 1697 Rocket 2.6 00:04:37 10° NNW 00:10:18 90° E 00:12:58 33° SSE
SL-08 ROCKET BODY 4.5 00:08:51 36° S 00:11:35 79° E 00:17:48 10° NNE
Cosmos 1980 Rocket 2.8 00:10:15 10° NNW 00:15:52 54° NE 00:20:33 15° SE
Cosmos 1758 4.1 00:14:24 10° N 00:18:04 42° ENE 00:19:14 32° ESE
KORONAS-FOTON 4.0 00:17:39 48° WSW 00:18:07 52° WNW 00:21:44 10° N
Meteor 1-22 Rocket 4.0 00:15:52 10° N 00:21:12 84° E 00:23:27 36° SSE
Cosmos 2266 Rocket 3.9 00:19:48 35° SSW 00:22:34 80° W 00:28:50 10° N
Cosmos 883 Rocket 4.4 00:19:05 10° N 00:25:19 83° W 00:28:17 34° S
Cosmos 1607 4.3 00:23:16 34° S 00:25:54 55° ESE 00:32:14 10° NE
BREEZE-M DEB (TANK) 2.2 00:23:38 10° W 00:27:48 55° NNW 00:29:53 10° ENE
In-Cosmos 22 4.2 00:33:20 36° SSW 00:35:51 85° WNW 00:41:40 10° N
Helios 1A Rocket 2.9 00:35:43 41° SE 00:36:56 68° ENE 00:40:48 10° N
Lacrosse 5 rocket 3.1 00:35:35 10° NW 00:39:26 34° NNE 00:43:07 10° E
Cosmos 2228 Rocket 3.3 00:38:49 40° SSE 00:40:15 64° E 00:44:42 10° NNE
SL-16 R/B 4.2 00:36:48 10° NNW 00:41:39 28° NE 00:46:28 10° ESE
Cosmos 1674 4.2 00:41:25 21° W 00:42:06 22° WNW 00:44:54 10° NNW
Cosmos 1707 Rocket 3.9 00:40:48 37° SSE 00:42:16 58° E 00:46:39 10° NNE
Cosmos 1140 Rocket 3.6 00:45:22 34° SW 00:47:39 72° WNW 00:52:53 10° NNE
Cosmos 2251 Rocket 3.5 00:46:23 37° S 00:48:29 77° ESE 00:53:46 10° NNE
SL-19 R/B 4.5 00:44:36 10° NNE 00:49:04 79° WNW 00:50:19 45° SSW
Meteor 2-20 4.4 00:43:16 10° N 00:49:28 90° W 00:52:55 28° S
USA 267 3.5 00:43:56 10° ENE 00:50:25 69° NNW 00:56:54 10° WSW
NOSS 3-3 (A) 4.2 00:47:03 21° WSW 00:50:55 64° NW 00:57:31 10° NE
Cosmos 1300 2.4 00:49:21 10° N 00:52:56 86° W 00:53:36 57° S
Cosmos 2082 Rocket 2.8 00:50:37 28° SSE 00:53:11 46° ESE 00:58:37 10° NE
Meteor 2-10 Rocket 3.8 00:54:45 10° NNW 01:00:32 68° W 01:03:23 31° S
Cosmos 407 Rocket 3.5 00:58:46 34° SSW 01:01:11 80° WNW 01:06:29 10° NNE
Cosmos 1833 Rocket 3.1 00:58:50 25° SW 01:01:59 56° NW 01:07:32 10° NNE
ADEOS II 4.2 00:58:31 10° NE 01:02:08 19° E 01:05:44 10° SE
Cosmos 44 Rocket 3.5 00:58:21 10° NW 01:03:09 50° WSW 01:04:42 36° S
Cosmos 468 Rocket 4.1 00:58:37 10° NNW 01:03:57 77° ENE 01:07:58 18° SSE
Cosmos 1190 Rocket 4.2 01:02:08 32° S 01:04:31 65° ESE 01:09:47 10° NNE
Okean 1-7 3.9 01:03:32 25° SSE 01:05:32 41° E 01:09:36 10° NNE
MOZ.5/SAFIR/RUBIN 5/SL-8 3.9 01:02:50 24° SSE 01:05:38 74° ENE 01:10:23 10° N
NOSS 3-4 (A) 3.8 00:59:14 10° NW 01:06:02 70° SW 01:13:53 10° SSE
NOSS 3-4 (C) 3.8 00:59:17 10° NW 01:06:05 71° SW 01:13:57 10° SSE
Okean 2 4.4 01:04:37 24° SE 01:06:24 36° E 01:10:04 10° NNE
Cosmos 381 Rocket 4.5 01:01:55 10° NNW 01:08:23 84° WSW 01:13:11 19° SSE
Cosmos 1908 Rocket 4.5 01:04:08 10° N 01:08:26 46° ENE 01:11:38 17° SE
Cosmos 1400 Rocket 2.9 01:10:07 41° SW 01:11:20 66° WNW 01:15:21 10° N
GP-B 4.4 01:07:59 10° NNW 01:11:46 28° WNW 01:13:13 23° WSW
IDEFIX/ARIANE 42P 3.4 01:07:48 10° NNE 01:12:48 42° E 01:16:06 20° SSE
BREEZE-M DEB (TANK) 3.8 01:12:17 24° WSW 01:14:01 40° SSW 01:22:29 10° SE
Cosmos 2285 Rocket 4.4 01:14:03 23° SW 01:17:54 56° WNW 01:24:09 10° NNE
Cosmos 1763 Rocket 3.6 01:13:20 10° NNW 01:18:34 59° WSW 01:21:16 28° S
SL-8 R/B 3.6 01:13:59 10° W 01:18:44 68° SSW 01:23:30 10° ESE
ATLAS CENTAUR R/B 4.4 01:06:01 10° NW 01:19:11 56° SW 01:27:59 10° SSE
Cosmos 2278 4.3 01:16:43 10° NNW 01:22:23 58° ENE 01:28:00 10° SE
Cosmos 1733 Rocket 3.5 01:18:23 10° NNW 01:22:32 46° W 01:23:56 33° SW
CZ-2D R/B 3.2 01:18:07 10° NNE 01:23:16 40° E 01:27:12 16° SSE
USA 234 4.0 01:26:06 25° SSW 01:27:59 29° SW 01:33:31 10° WNW
Okean 3 3.3 01:26:35 35° SSW 01:28:12 75° W 01:32:19 10° N
Cosmos 1346 Rocket 2.8 01:25:44 10° NNW 01:29:33 59° W 01:30:55 36° SSW
Cosmos 2333 Rocket 4.3 01:24:58 10° NNW 01:29:56 29° NE 01:34:53 10° ESE
COBE Rocket 4.2 01:25:48 10° NNE 01:30:36 60° E 01:33:40 22° S
Aureole 3 3.0 01:30:43 42° WSW 01:31:13 48° WNW 01:34:07 10° N
Cosmos 1356 Rocket 3.4 01:30:15 34° SSW 01:31:52 69° WNW 01:35:58 10° N
H-2A R/B 4.5 01:34:19 10° NNW 01:36:34 14° NW 01:38:48 10° W
SL-14 R/B 4.3 01:38:00 25° WSW 01:39:24 33° WNW 01:42:57 10° N
Cosmos 1953 2.1 01:39:15 10° NNW 01:43:11 80° W 01:45:20 26° S
Cosmos 2322 Rocket 3.4 01:38:26 10° NNW 01:43:50 44° NE 01:49:14 10° SE
Nadezhda 1 Rocket 4.0 01:38:27 10° N 01:44:54 87° W 01:50:30 14° S
Cosmos 540 Rocket 3.8 01:41:00 10° NNW 01:45:57 47° WSW 01:48:53 23° SSW
Resurs 1-4 Rocket 2.4 01:42:23 10° NNE 01:47:37 64° ESE 01:51:28 18° S
Cosmos 1703 Rocket 3.6 01:47:02 23° S 01:49:43 79° E 01:54:11 10° NNE
CZ-2C R/B 2.5 01:45:43 12° SSE 01:50:32 87° ENE 01:55:45 10° NNW
Cosmos 1697 Rocket 4.3 01:50:05 10° WNW 01:53:26 16° W 01:54:39 15° WSW
COSMOS 2406 3.3 01:54:13 22° SW 01:58:06 77° WNW 02:03:54 10° NNE
Cosmos 1980 Rocket 3.1 01:54:42 10° NW 01:59:35 30° WSW 02:02:15 20° SSW
ATLAS 2AS CENTAUR R/B 4.1 01:56:38 10° NW 02:03:10 41° NNE 02:09:28 10° E
MSX 3.8 01:57:48 10° NNE 02:03:36 89° ESE 02:08:03 18° SSW
Cosmos 2369 4.4 01:58:28 10° NW 02:03:36 35° WSW 02:07:04 18° SSW
NPP 3.7 01:58:11 10° NNE 02:03:37 80° WNW 02:07:34 19° SSW
SL-16 R/B 2.8 02:02:03 10° SSE 02:08:17 74° ENE 02:14:33 10° NNW
Cosmos 1455 2.4 02:06:55 10° NNW 02:10:14 43° W 02:11:55 24° SSW
Cosmos 1300 Rocket 3.6 02:05:52 10° N 02:10:15 82° E 02:14:33 10° SSE
Cosmos 1315 Rocket 2.8 02:11:23 22° SSW 02:13:46 67° WNW 02:17:40 10° N
Cosmos 2098 Rocket 4.4 02:09:33 10° N 02:14:12 51° ENE 02:19:47 10° SSE
Meteor 1-4 Rocket 2.4 02:13:31 26° SW 02:14:49 48° WNW 02:17:43 10° N
H-2A R/B 3.8 02:13:55 10° N 02:17:47 48° WNW 02:20:21 19° SW
Lacrosse 5 rocket 1.2 02:14:03 10° WNW 02:18:11 89° NE 02:22:06 10° SE
BREEZE-M DEB (TANK) 1.9 02:19:05 10° W 02:24:30 86° S 02:26:50 10° E
Cosmos 1709 Rocket 4.0 02:19:07 13° S 02:24:51 84° W 02:31:16 10° N
SL-16 R/B 2.2 02:20:36 10° NNW 02:26:15 69° WSW 02:31:52 10° SSE
RESURS DK-1 4.0 02:23:39 10° NNW 02:27:28 37° NE 02:31:16 10° ESE
Cosmos 968 Rocket 4.0 02:24:00 11° S 02:28:45 55° ESE 02:33:46 10° NNE
COSMOS 2441 4.3 02:24:33 10° NNE 02:29:22 77° WNW 02:33:30 14° SSW
Cosmos 841 Rocket 3.9 02:27:18 10° NW 02:32:13 43° WSW 02:37:08 10° S
USA 267 4.2 02:26:47 10° ENE 02:32:59 48° N 02:39:11 10° WNW
Cosmos 2082 Rocket 3.2 02:32:26 12° WSW 02:37:22 38° NW 02:42:43 10° NNE
Meteor 1-24 Rocket 4.4 02:32:31 10° S 02:38:25 59° E 02:44:19 10° NNE
Cosmos 2237 4.5 02:33:58 10° NW 02:39:29 49° WSW 02:44:58 10° S
ADEOS II 2.1 02:37:04 10° NNE 02:42:19 73° WNW 02:47:23 11° SSW
Cosmos 1408 2.0 02:39:55 14° SSW 02:42:27 81° W 02:45:28 10° N
Cosmos 1782 Rocket 4.2 02:40:53 10° NNW 02:44:56 37° W 02:48:49 11° SSW
Cosmos 2219 Rocket 3.2 02:40:10 10° NNW 02:45:41 52° NE 02:51:12 10° SE
SJ 16-02 1.9 02:42:24 10° S 02:46:37 55° ESE 02:50:51 10° NNE
Geosat 4.0 02:42:05 10° SSE 02:47:06 85° WSW 02:52:10 10° NNW
IRAS Rocket 4.3 02:43:18 10° NNE 02:48:51 80° ESE 02:54:20 10° SSW
IDEFIX/ARIANE 42P 3.6 02:47:33 10° N 02:52:13 33° WNW 02:56:51 10° SW
Cosmos 2360 Rocket 2.2 02:46:52 10° NNW 02:52:35 83° WSW 02:58:15 10° SSE
Cosmos 405 Rocket 4.0 02:50:48 10° N 02:54:11 40° ENE 02:57:35 10° SE
Cosmos 1814 Rocket 4.0 02:49:26 10° NNW 02:54:38 74° WSW 02:59:51 10° SSE
Cosmos 1825 4.2 02:52:35 10° SE 02:55:22 24° E 02:58:10 10° NE
SL-27 R/B 2.6 02:55:41 10° S 02:58:26 49° ESE 03:01:12 10° NNE
ALOS 2.3 02:54:57 10° NNE 02:59:37 81° WNW 03:04:13 10° SSW
CZ-2C R/B 3.7 02:54:14 10° N 02:59:50 51° WNW 03:05:24 10° SW
SL-8 R/B 4.4 02:56:33 10° W 03:00:45 31° SSW 03:04:57 10° SSE
CZ-2D R/B 3.0 02:58:13 10° N 03:03:14 37° WNW 03:08:12 10° SW
Meteor 2-5 Rocket 3.9 03:00:26 10° S 03:06:20 88° WNW 03:12:20 10° NNE
CZ-4 R/B 4.4 03:02:11 10° NNE 03:06:49 58° ESE 03:11:28 10° S
Cosmos 1242 Rocket 3.2 03:04:31 11° SW 03:06:57 28° WNW 03:09:30 10° N
Cosmos 1703 3.2 03:04:32 10° SSW 03:08:14 64° W 03:11:58 10° N
Cosmos 2242 Rocket 4.1 03:04:02 10° SSW 03:08:16 44° WNW 03:12:35 10° N
Cosmos 2221 Rocket 4.3 03:04:04 10° S 03:08:31 57° E 03:12:59 10° NNE
Sich 1 Rocket 3.7 03:07:36 10° N 03:12:10 87° E 03:16:39 10° S
Cosmos 2333 Rocket 2.3 03:09:00 10° NW 03:14:39 65° WSW 03:20:19 10° SSE
FENGYUN 3A 4.3 03:12:03 10° N 03:17:07 43° WNW 03:22:09 10° SW
AQUA 4.5 03:13:29 10° N 03:17:55 41° WNW 03:22:19 10° SW
YAOGAN 6 3.7 03:15:04 10° NNE 03:18:13 38° E 03:21:20 10° SSE
Cosmos 2151 Rocket 3.6 03:14:30 10° NNW 03:19:00 75° W 03:23:27 10° S
ASTEX 1 4.0 03:15:11 10° SSE 03:20:03 62° E 03:24:56 10° N
